Location: Buchberg
(46.9333°N, 15.8500°E)
Time: 09:32:23
(UTC+00:00)

Cosmos 1703 Rocket - Pass Details

Date: 14 July 2020
Orbit: 605 x 634 km, 82.5° (Epoch: 08 August)

Event Time Altitude Azimuth Distance (km) Brightness Sun altitude
Rises 00:30:00 0° 347° (NNW) 2,934 8.0 -18.6°
Reaches altitude 10° 00:32:17 10° 344° (NNW) 2,018 6.9 -18.5°
Maximum altitude 00:36:40 59° 265° (W) 726 3.7 -18.2°
Enters shadow 00:38:05 39° 206° (SSW) 944 4.0 -18.1°
